Weather observations for the past three days for
Thomaston, Thomaston-Upson County Airport
Imperial (Metric)
Date Time (edt) Wind (mph) Vis. (mi.) Weather Sky Cond. Temperature (ºF) Relative Humidity Wind Chill (°F) Heat Index (°F) Pressure Precipitation (in)
Air Dwpt 6 hour altimeter (in) sea level (mb) 1 hr 3 hr 6 hr
Max. Min.
18 11:55 SE 10 G 20 10.00 Mostly Cloudy BKN039 BKN050 82.4 55.4 40% 82 30.17 0.0
18 11:35 SE 12 10.00 Mostly Cloudy BKN039 BKN048 82.4 59 45% 82 30.17 0.0
18 11:15 SE 14 G 18 10.00 Partly Cloudy SCT036 SCT046 80.6 59 48% 81 30.18 0.0
18 10:55 E 10 10.00 Mostly Cloudy SCT030 BKN037 BKN043 80.6 59 48% 81 30.18 0.0
18 10:35 SE 13 G 18 10.00 Mostly Cloudy BKN030 BKN038 78.8 59 51% 80 30.19 0.0
18 10:15 SE 9 10.00 Mostly Cloudy BKN026 BKN032 78.8 60.8 54% 80 30.18 0.0
18 09:55 SE 12 G 20 10.00 Partly Cloudy SCT024 SCT029 77 60.8 57% 79 30.18 0.0
18 09:35 SE 13 G 17 10.00 Partly Cloudy SCT022 77 60.8 57% 79 30.18 0.0
18 09:15 SE 10 G 16 10.00 Fair CLR 77 60.8 57% 79 30.18 0.0
18 08:55 SE 9 10.00 Partly Cloudy SCT017 75.2 62.6 65% 77 30.19 0.0
18 08:35 SE 9 10.00 Fair CLR 73.4 60.8 65% 30.18 0.0
18 08:15 SE 6 10.00 Fair CLR 73.4 60.8 65% 30.18 0.0
18 07:55 SE 7 10.00 Fair CLR 71.6 60.8 69% 30.17 0.0
18 07:35 SE 6 10.00 Fair CLR 69.8 60.8 73% 30.16 0.0
18 07:15 SE 5 10.00 Fair CLR 69.8 60.8 73% 30.16 0.0
18 06:55 SE 6 10.00 Fair CLR 69.8 60.8 73% 30.16 0.0
18 06:35 SE 6 10.00 Fair CLR 69.8 60.8 73% 30.15 0.0
18 06:15 SE 6 10.00 Fair CLR 69.8 60.8 73% 30.15 0.0
18 05:55 SE 6 10.00 Fair CLR 69.8 60.8 73% 30.15 0.0
18 05:35 SE 6 10.00 Fair CLR 69.8 59 69% 30.14 0.0
18 05:15 SE 6 10.00 Fair CLR 71.6 59 65% 30.14 0.0
18 04:55 SE 6 10.00 Partly Cloudy SCT065 71.6 59 65% 30.14 0.0
18 04:35 E 5 10.00 Mostly Cloudy BKN065 71.6 59 65% 30.14 0.0
18 04:15 E 6 10.00 Mostly Cloudy BKN065 71.6 59 65% 30.15 0.0
18 03:55 SE 6 10.00 Fair CLR 71.6 59 65% 30.15 0.0
18 03:35 SE 7 10.00 Fair CLR 71.6 59 65% 30.14 0.0
18 03:15 SE 6 10.00 Fair CLR 71.6 59 65% 30.15 0.0
18 02:55 SE 5 10.00 Fair CLR 71.6 59 65% 30.15 0.0
18 02:15 SE 5 10.00 Fair CLR 73.4 59 61% 30.16 0.0
18 01:55 SE 5 10.00 Fair CLR 73.4 59 61% 30.16 0.0
18 01:35 SE 3 10.00 Fair CLR 73.4 59 61% 30.16 0.0
18 01:15 SE 5 10.00 Fair CLR 73.4 59 61% 30.16 0.0
18 00:55 SE 5 10.00 Fair CLR 75.2 59 57% 78 30.16 0.0
18 00:35 SE 5 10.00 Fair CLR 75.2 60.8 61% 77 30.16 0.0
18 00:15 SE 6 10.00 Fair CLR 77 60.8 57% 79 30.16 0.0
17 23:55 SE 3 10.00 Fair CLR 77 62.6 61% 79 30.16 0.0
17 23:35 SE 6 10.00 Fair CLR 77 62.6 61% 79 30.16 0.0
17 23:15 SE 8 10.00 Fair CLR 78.8 62.6 58% 80 30.15 0.0
17 22:55 SE 5 10.00 Partly Cloudy SCT046 77 64.4 65% 79 30.14 0.0
17 22:35 Calm 10.00 Partly Cloudy SCT055 SCT070 SCT090 78.8 64.4 61% 81 30.14 0.0
17 22:15 Calm 10.00 Mostly Cloudy SCT037 SCT055 BKN070 78.8 64.4 61% 81 30.13 0.0
17 21:35 Calm 10.00 Fair CLR 80.6 62.6 54% 82 30.11 0.0
17 21:15 Calm 10.00 Partly Cloudy SCT055 80.6 62.6 54% 82 30.11 0.0
17 20:55 Calm 10.00 Partly Cloudy SCT055 82.4 62.6 51% 83 30.11 0.0
17 20:35 S 6 10.00 Partly Cloudy SCT060 SCT085 SCT110 82.4 62.6 51% 83 30.1 0.0
17 20:15 S 8 10.00 Mostly Cloudy SCT060 BKN070 BKN110 84.2 62.6 48% 85 30.1 0.0
17 19:55 S 9 10.00 Mostly Cloudy SCT060 BKN070 84.2 62.6 48% 85 30.09 0.0
17 19:35 S 13 10.00 Mostly Cloudy SCT060 BKN070 BKN100 89.6 59 36% 89 30.08 0.0
17 19:15 SE 10 10.00 Partly Cloudy SCT070 SCT100 91.4 57.2 32% 90 30.07 0.0
17 18:55 SE 7 10.00 Partly Cloudy SCT055 SCT070 SCT080 89.6 57.2 33% 88 30.07 0.0
17 18:35 SE 8 10.00 Mostly Cloudy BKN055 BKN080 91.4 57.2 32% 90 30.07 0.0
17 18:15 E 8 10.00 Partly Cloudy SCT055 SCT070 91.4 57.2 32% 90 30.07 0.0
17 17:55 SE 9 G 17 10.00 Partly Cloudy SCT055 91.4 57.2 32% 90 30.08 0.0
17 17:35 E 6 10.00 Partly Cloudy SCT090 91.4 57.2 32% 90 30.08 0.0
17 17:15 E 8 10.00 Partly Cloudy SCT060 SCT070 89.6 59 36% 89 30.09 0.0
17 16:55 E 13 G 17 10.00 Mostly Cloudy BKN060 BKN070 BKN080 91.4 55.4 30% 90 30.1 0.0
17 16:35 SE 12 10.00 Partly Cloudy SCT055 SCT070 SCT090 91.4 55.4 30% 90 30.1 0.0
17 16:15 SE 6 10.00 Mostly Cloudy SCT055 BKN070 BKN120 89.6 55.4 31% 88 30.11 0.0
17 15:55 SE 7 10.00 Mostly Cloudy SCT055 BKN120 91.4 57.2 32% 90 30.12 0.0
17 15:35 SE 12 G 16 10.00 Partly Cloudy SCT055 89.6 57.2 33% 88 30.13 0.0
17 15:15 SE 8 G 16 10.00 Fair CLR 89.6 57.2 33% 88 30.14 0.0
17 14:55 SE 10 10.00 Partly Cloudy SCT049 SCT060 89.6 57.2 33% 88 30.14 0.0
17 14:35 S 10 10.00 Mostly Cloudy SCT049 SCT060 BKN120 89.6 57.2 33% 88 30.16 0.0
17 14:15 SE 12 G 18 10.00 Partly Cloudy SCT049 SCT055 SCT120 89.6 59 36% 89 30.16 0.0
17 13:55 SE 10 G 17 10.00 Partly Cloudy SCT045 SCT050 SCT120 89.6 59 36% 89 30.17 0.0
17 13:35 SE 7 G 13 10.00 Mostly Cloudy BKN043 BKN050 87.8 59 38% 87 30.18 0.0
17 13:15 SE 8 10.00 Mostly Cloudy BKN040 BKN048 87.8 60.8 40% 88 30.18 0.0
17 12:55 SE 8 10.00 Partly Cloudy SCT040 87.8 60.8 40% 88 30.18 0.0
17 12:35 SE 9 10.00 Partly Cloudy SCT038 86 60.8 43% 86 30.19 0.0
17 12:15 SE 9 10.00 Partly Cloudy SCT034 86 62.6 46% 87 30.19 0.0
17 11:55 SE 8 10.00 Partly Cloudy SCT034 86 60.8 43% 86 30.19 0.0
17 11:35 SE 8 10.00 Partly Cloudy SCT036 82.4 60.8 48% 83 30.19 0.0
17 11:15 S 12 G 17 10.00 Partly Cloudy SCT033 84.2 60.8 45% 84 30.19 0.0
17 10:55 SE 7 10.00 Partly Cloudy SCT026 82.4 60.8 48% 83 30.19 0.0
17 10:35 SE 5 10.00 Partly Cloudy SCT024 80.6 62.6 54% 82 30.19 0.0
17 10:15 E 8 10.00 Partly Cloudy SCT020 80.6 62.6 54% 82 30.19 0.0
17 09:55 SE 6 10.00 Partly Cloudy SCT016 80.6 64.4 58% 82 30.19 0.0
17 09:35 SE 7 10.00 Partly Cloudy SCT014 78.8 64.4 61% 81 30.18 0.0
17 09:15 SE 5 10.00 Fair CLR 77 64.4 65% 79 30.18 0.0
17 08:55 SE 6 10.00 Fair CLR 77 64.4 65% 79 30.17 0.0
17 08:35 SE 6 10.00 Fair CLR 77 64.4 65% 79 30.17 0.0
17 08:15 SE 5 10.00 Fair CLR 75.2 64.4 69% 77 30.17 0.0
17 07:55 SE 5 10.00 Fair CLR 73.4 64.4 74% 30.17 0.0
17 07:35 E 6 10.00 Fair CLR 73.4 64.4 74% 30.16 0.0
17 07:15 E 5 10.00 Fair CLR 71.6 64.4 78% 30.16 0.0
17 06:55 E 5 10.00 Fair CLR 71.6 64.4 78% 30.15 0.0
17 06:35 SE 5 10.00 Fair CLR 71.6 64.4 78% 30.15 0.0
17 06:15 SE 3 10.00 Fair CLR 69.8 64.4 83% 30.14 0.0
17 05:55 SE 5 10.00 Fair CLR 71.6 62.6 73% 30.14 0.0
17 05:35 SE 6 10.00 Fair CLR 71.6 62.6 73% 30.13 0.0
17 05:15 SE 3 10.00 Fair CLR 71.6 62.6 73% 30.13 0.0
17 04:55 SE 5 10.00 Fair CLR 71.6 62.6 73% 30.13 0.0
17 04:35 SE 6 10.00 Fair CLR 71.6 62.6 73% 30.13 0.0
17 04:15 SE 6 10.00 Fair CLR 73.4 62.6 69% 30.13 0.0
17 03:55 SE 7 10.00 Fair CLR 73.4 62.6 69% 30.12 0.0
17 03:35 SE 6 10.00 Fair CLR 71.6 62.6 73% 30.13 0.0
17 03:15 SE 6 10.00 Fair CLR 73.4 60.8 65% 30.13 0.0
17 02:55 SE 6 10.00 Fair CLR 73.4 60.8 65% 30.14 0.0
17 02:35 SE 5 10.00 Fair CLR 73.4 60.8 65% 30.14 0.0
17 02:15 SE 5 10.00 Fair CLR 73.4 60.8 65% 30.14 0.0
17 01:55 SE 6 10.00 Fair CLR 77 60.8 57% 79 30.14 0.0
17 01:35 SE 6 10.00 Fair CLR 77 60.8 57% 79 30.15 0.0
17 01:15 SE 8 10.00 Fair CLR 78.8 60.8 54% 80 30.15 0.0
17 00:55 S 9 10.00 Fair CLR 78.8 60.8 54% 80 30.15 0.0
17 00:35 S 10 10.00 Fair CLR 80.6 59 48% 81 30.15 0.0
17 00:15 S 10 10.00 Fair CLR 80.6 59 48% 81 30.15 0.0
16 23:55 S 10 G 16 10.00 Fair CLR 80.6 59 48% 81 30.14 0.0
16 23:35 SE 7 10.00 Fair CLR 80.6 60.8 51% 81 30.13 0.0
16 23:15 SE 8 10.00 Fair CLR 80.6 60.8 51% 81 30.12 0.0
16 22:55 Calm 10.00 Partly Cloudy SCT065 78.8 60.8 54% 80 30.11 0.0
16 22:35 Calm 10.00 Partly Cloudy SCT065 80.6 60.8 51% 81 30.11 0.0
16 22:15 Calm 10.00 Fair CLR 80.6 60.8 51% 81 30.1 0.0
16 21:55 Calm 10.00 Fair CLR 80.6 60.8 51% 81 30.1 0.0
16 21:35 Calm 10.00 Fair CLR 80.6 60.8 51% 81 30.09 0.0
16 21:15 Calm 10.00 Fair CLR 82.4 60.8 48% 83 30.08 0.0
16 20:55 Calm 10.00 Fair CLR 84.2 59 43% 84 30.07 0.0
16 20:35 S 3 10.00 Fair CLR 86 59 40% 85 30.07 0.0
16 20:15 S 5 10.00 Fair CLR 87.8 59 38% 87 30.07 0.0
16 19:55 S 6 10.00 Fair CLR 89.6 57.2 33% 88 30.07 0.0
16 19:35 S 8 10.00 Fair CLR 89.6 55.4 31% 88 30.06 0.0
16 19:15 S 8 10.00 Fair CLR 91.4 55.4 30% 90 30.06 0.0
16 18:55 S 10 10.00 Fair CLR 93.2 53.6 26% 91 30.06 0.0
16 18:35 SE 12 G 17 10.00 Partly Cloudy SCT070 93.2 51.8 24% 90 30.06 0.0
16 18:15 SE 12 G 20 10.00 Partly Cloudy SCT070 93.2 51.8 24% 90 30.07 0.0
16 17:55 S 9 10.00 Partly Cloudy SCT070 91.4 51.8 26% 89 30.06 0.0
16 17:35 SE 10 10.00 Partly Cloudy SCT070 SCT100 93.2 53.6 26% 91 30.06 0.0
16 17:15 SE 13 10.00 Fair CLR 95 51.8 23% 92 30.05 0.0
16 16:55 SE 10 10.00 Partly Cloudy SCT075 95 51.8 23% 92 30.05 0.0
16 16:35 SE 12 G 17 10.00 Partly Cloudy SCT075 SCT095 95 51.8 23% 92 30.06 0.0
16 16:15 SE 14 G 22 10.00 Partly Cloudy SCT075 SCT095 95 50 22% 92 30.06 0.0
16 15:55 SE 12 G 20 10.00 Fair CLR 95 50 22% 92 30.06 0.0
16 15:35 SE 16 G 22 10.00 Partly Cloudy SCT070 95 51.8 23% 92 30.07 0.0
16 15:15 SE 14 G 21 10.00 Partly Cloudy SCT070 95 51.8 23% 92 30.07 0.0
16 14:55 S 12 10.00 Partly Cloudy SCT070 95 51.8 23% 92 30.07 0.0
16 14:35 S 12 10.00 Partly Cloudy SCT070 95 51.8 23% 92 30.08 0.0
16 14:15 S 13 G 22 10.00 Partly Cloudy SCT065 SCT075 95 53.6 25% 93 30.09 0.0
16 13:55 SE 15 G 21 10.00 Partly Cloudy SCT060 SCT075 95 53.6 25% 93 30.1 0.0
16 13:35 SE 12 G 17 10.00 Partly Cloudy SCT060 SCT075 91.4 53.6 28% 89 30.1 0.0
16 13:15 SE 12 G 17 10.00 Partly Cloudy SCT060 91.4 55.4 30% 90 30.11 0.0
16 12:55 SE 9 10.00 Partly Cloudy SCT060 91.4 55.4 30% 90 30.11 0.0
16 12:35 SE 10 10.00 Partly Cloudy SCT055 91.4 55.4 30% 90 30.11 0.0
16 12:15 S 8 10.00 Partly Cloudy SCT055 91.4 59 34% 91 30.12 0.0
16 11:55 SE 6 10.00 Fair CLR 89.6 59 36% 89 30.12 0.0
16 11:35 S 3 10.00 Fair CLR 89.6 59 36% 89 30.12 0.0
16 11:15 SW 7 10.00 Fair CLR 89.6 60.8 38% 90 30.12 0.0
16 10:55 Calm 10.00 Fair CLR 87.8 60.8 40% 88 30.12 0.0
16 10:35 Calm 10.00 Fair CLR 86 62.6 46% 87 30.12 0.0
16 10:15 Calm 10.00 Fair CLR 84.2 62.6 48% 85 30.12 0.0
16 09:55 S 3 10.00 Fair CLR 82.4 62.6 51% 83 30.12 0.0
16 09:35 S 5 10.00 Fair CLR 82.4 60.8 48% 83 30.12 0.0
16 09:15 S 3 10.00 Fair CLR 80.6 60.8 51% 81 30.11 0.0
16 08:55 SE 5 10.00 Fair CLR 78.8 60.8 54% 80 30.11 0.0
16 08:35 SE 5 10.00 Fair CLR 78.8 60.8 54% 80 30.1 0.0
16 08:15 SE 3 10.00 Fair CLR 77 60.8 57% 79 30.1 0.0
16 07:55 SE 3 10.00 Fair CLR 77 62.6 61% 79 30.09 0.0
16 07:35 SE 3 10.00 Fair CLR 73.4 64.4 74% 30.08 0.0
16 07:15 SE 5 10.00 Fair CLR 69.8 64.4 83% 30.08 0.0
16 06:55 Calm 7.00 Fair CLR 69.8 64.4 83% 30.08 0.0
16 06:35 Calm 10.00 Fair CLR 69.8 64.4 83% 30.08 0.0
16 06:15 Calm 7.00 Fair CLR 69.8 64.4 83% 30.07 0.0
16 05:55 Calm 10.00 Fair CLR 69.8 64.4 83% 30.06 0.0
16 05:35 Calm 10.00 Fair CLR 69.8 64.4 83% 30.06 0.0
16 05:15 Calm 10.00 Fair CLR 69.8 64.4 83% 30.06 0.0
16 04:55 Calm 10.00 Fair CLR 69.8 64.4 83% 30.05 0.0
16 04:35 Calm 10.00 Fair CLR 71.6 64.4 78% 30.05 0.0
16 04:15 SE 5 10.00 Fair CLR 71.6 64.4 78% 30.04 0.0
16 03:55 SE 5 10.00 Fair CLR 73.4 64.4 74% 30.04 0.0
16 03:35 SE 5 10.00 Fair CLR 71.6 64.4 78% 30.04 0.0
16 03:15 SE 7 10.00 Fair CLR 71.6 64.4 78% 30.04 0.0
16 02:55 Calm 10.00 Fair CLR 71.6 64.4 78% 30.03 0.0
16 02:35 Calm 10.00 Fair CLR 71.6 64.4 78% 30.03 0.0
16 02:15 Calm 10.00 Fair CLR 73.4 64.4 74% 30.03 0.0
16 01:55 Calm 10.00 Fair CLR 73.4 64.4 74% 30.04 0.0
16 01:35 Calm 10.00 Fair CLR 73.4 64.4 74% 30.04 0.0
16 01:15 Calm 10.00 Fair CLR 75.2 64.4 69% 77 30.04 0.0
16 00:55 N 3 10.00 Thunderstorm in Vicinity SCT065 77 64.4 65% 79 30.05 0.0
16 00:35 Calm 10.00 Partly Cloudy SCT065 78.8 62.6 58% 80 30.05 0.0
16 00:15 N 5 10.00 Partly Cloudy SCT065 SCT080 78.8 62.6 58% 80 30.04 0.0
15 23:55 N 7 10.00 Partly Cloudy SCT080 78.8 62.6 58% 80 30.04 0.0
15 23:35 NW 3 10.00 Partly Cloudy SCT090 77 64.4 65% 79 30.03 0.0
15 23:15 Calm 10.00 Mostly Cloudy BKN090 77 62.6 61% 79 30.03 0.0
15 22:55 Calm 10.00 Partly Cloudy SCT090 77 62.6 61% 79 30.02 0.0
15 22:35 Calm 10.00 Fair CLR 80.6 62.6 54% 82 30.01 0.0
15 22:15 Calm 10.00 Fair CLR 80.6 62.6 54% 82 30.01 0.0
15 21:55 Calm 10.00 Fair CLR 80.6 62.6 54% 82 30.01 0.0
15 21:35 S 3 10.00 Partly Cloudy SCT085 SCT120 82.4 62.6 51% 83 30 0.0
15 21:15 Calm 10.00 Mostly Cloudy BKN110 82.4 62.6 51% 83 30 0.0
15 20:55 Calm 10.00 Mostly Cloudy BKN100 82.4 60.8 48% 83 29.99 0.0
15 20:35 Calm 10.00 Fair CLR 84.2 62.6 48% 85 29.98 0.0
15 20:15 Calm 10.00 Fair CLR 84.2 60.8 45% 84 29.97 0.0
15 19:55 Calm 10.00 Fair CLR 86 62.6 46% 87 29.97 0.0
15 19:35 Calm 10.00 Fair CLR 86 62.6 46% 87 29.96 0.0
15 19:15 Calm 10.00 Fair CLR 87.8 60.8 40% 88 29.96 0.0
15 18:55 Calm 10.00 Partly Cloudy SCT090 87.8 60.8 40% 88 29.96 0.0
15 18:35 SE 3 10.00 Mostly Cloudy SCT090 BKN110 89.6 59 36% 89 29.97 0.0
15 18:15 E 6 10.00 Mostly Cloudy BKN100 BKN120 89.6 59 36% 89 29.97 0.0
15 17:55 S 3 10.00 Mostly Cloudy BKN100 BKN120 91.4 53.6 28% 89 29.97 0.0
15 17:35 S 6 10.00 Mostly Cloudy BKN110 93.2 53.6 26% 91 29.98 0.0
15 17:15 W 3 10.00 Mostly Cloudy SCT080 BKN120 93.2 55.4 28% 91 29.98 0.0
15 16:55 W 6 10.00 Mostly Cloudy SCT070 BKN080 93.2 59 32% 93 29.98 0.0
15 16:35 SW 3 10.00 Partly Cloudy SCT070 93.2 55.4 28% 91 29.99 0.0
15 16:15 Calm 10.00 Fair CLR 91.4 55.4 30% 90 29.99 0.0
15 15:55 SW 5 10.00 Partly Cloudy SCT120 91.4 57.2 32% 90 29.99 0.0
15 15:35 Calm 10.00 Partly Cloudy SCT060 SCT080 SCT120 91.4 57.2 32% 90 30 0.0
15 15:15 S 3 10.00 Overcast BKN060 BKN070 OVC080 91.4 57.2 32% 90 30 0.0
15 14:55 S 5 10.00 Overcast BKN060 BKN075 OVC090 91.4 59 34% 91 30 0.0
15 14:35 W 9 10.00 Overcast SCT060 BKN075 OVC090 95 59 30% 94 30 0.0
15 14:15 SW 7 10.00 Mostly Cloudy BKN060 BKN120 91.4 57.2 32% 90 30.01 0.0
15 13:55 S 5 10.00 Partly Cloudy SCT060 SCT120 91.4 57.2 32% 90 30.02 0.0
15 13:35 SE 5 10.00 Partly Cloudy SCT060 SCT075 93.2 57.2 30% 92 30.02 0.0
15 13:15 Calm 10.00 Overcast BKN060 OVC075 91.4 59 34% 91 30.03 0.0
15 12:55 S 5 10.00 Partly Cloudy SCT075 91.4 57.2 32% 90 30.03 0.0
15 12:35 Calm 10.00 Fair CLR 89.6 55.4 31% 88 30.03 0.0
Date Time (edt) Wind (mph) Vis. (mi.) Weather Sky Cond. Air Dwpt Max. Min. Relative Humidity Wind Chill (°F) Heat Index (°F) altimeter (in) sea level (mb) 1 hr 3 hr 6 hr
6 hour
Temperature (ºF) Pressure Precipitation (in)